This is the latest recevied weather packets stored in our database for station/object KY4GW. If no packets are shown the sender has not sent any weather packets the latest 1 day(s).
| Time | Temp. | Humidity | Pressure | Rain* | Wind** | Luminosity | Snow |
|---|---|---|---|---|---|---|---|
| 1778030343 | 15.56° C | 92% | 1009.6 hPa | 0 mm | 0 m/s | 0 W/m² | - |
| 1778030041 | 15.56° C | 91% | 1009.9 hPa | 0 mm | 0 m/s | 0 W/m² | - |
| 1778029738 | 15.56° C | 91% | 1009.9 hPa | 0 mm | 0 m/s | 0 W/m² | - |
| 1778029436 | 15.56° C | 90% | 1009.9 hPa | 0 mm | 0 m/s | 0 W/m² | - |
| 1778029132 | 15.56° C | 91% | 1009.9 hPa | 0.76 mm | 0 m/s | 0 W/m² | - |
| 1778028830 | 15.56° C | 91% | 1009.9 hPa | 0.76 mm | 0 m/s | 0 W/m² | - |
| 1778028525 | 15.56° C | 90% | 1009.9 hPa | 0.76 mm | 0 m/s | 0 W/m² | - |
| 1778028223 | 16.11° C | 89% | 1009.6 hPa | 0.51 mm | 0 m/s | 0 W/m² | - |
| 1778027919 | 16.11° C | 86% | 1009.6 hPa | 0.51 mm | 0.89 m/s, 223° | 1 W/m² | - |
| 1778027615 | 16.11° C | 86% | 1009.6 hPa | 0.25 mm | 0.89 m/s, 120° | 0 W/m² | - |
| 1778027312 | 16.11° C | 89% | 1010.6 hPa | 0.25 mm | 0 m/s | 1 W/m² | - |
| 1778027008 | 16.11° C | 86% | 1010.6 hPa | 0 mm | 0 m/s | 1 W/m² | - |
| 1778026704 | 16.11° C | 87% | 1010.6 hPa | 0 mm | 0 m/s | 1 W/m² | - |
| 1778026401 | 16.11° C | 86% | 1010.3 hPa | 0 mm | 0 m/s | 2 W/m² | - |
| 1778026098 | 16.67° C | 86% | 1010.3 hPa | 0 mm | 0 m/s | 3 W/m² | - |
| 1778025796 | 16.67° C | 85% | 1010.3 hPa | 0 mm | 0 m/s | 4 W/m² | - |
| 1778025492 | 16.67° C | 85% | 1010.6 hPa | 0.25 mm | 0 m/s | 20 W/m² | - |
| 1778025190 | 16.67° C | 85% | 1010.6 hPa | 0.25 mm | 0 m/s | 20 W/m² | - |
| 1778024887 | 16.67° C | 83% | 1010.6 hPa | 0.25 mm | 0 m/s | 9 W/m² | - |
| 1778024584 | 17.22° C | 80% | 1010.6 hPa | 0.25 mm | 0 m/s | 4 W/m² | - |
| 1778024281 | 17.78° C | 80% | 1010.6 hPa | 0.25 mm | 0 m/s | 7 W/m² | - |
| 1778023979 | 17.78° C | 76% | 1010.6 hPa | 0.25 mm | 0 m/s | 5 W/m² | - |
| 1778023676 | 18.33° C | 74% | 1010.6 hPa | 0.25 mm | 0 m/s | 4 W/m² | - |
| 1778023373 | 18.33° C | 72% | 1010.6 hPa | 0 mm | 0 m/s | 11 W/m² | - |
| 1778023070 | 17.78° C | 72% | 1010.6 hPa | 0 mm | 0 m/s | 13 W/m² | - |
* Rain latest hour (hover to see other rain measurements)
** Current wind speed in m/s (hover to see current wind gust speed)